sat.trackr.live / text

‹ back to catalog

STARLINK-37931

NORAD 69963 · 2026-157W

PAYLOAD ACTIVE UNKNOWN

§ Identity

Operator
Country
US
Launch date
2026-07-09
Launch site
AFETR
Launch vehicle
Mass (kg)
RCS (m²)

Purposes: comms

External: N2YO · Heavens-Above · Gunter

§ Orbital elements

Epoch: 2026-09-19T22:11:59.956800Z

Period
93.85 min
Inclination
53.1596°
Eccentricity
0.0001259
Mean motion
15.34389046 rev/d
Perigee alt
461.9 km
Apogee alt
463.6 km
Semi-major
6,840.9 km
B*
9.7631e-6
RAAN
336.4659°
Arg perigee
87.6941°
Mean anomaly
272.4206°
Rev number
1,128

§ Raw data

STARLINK-379311 69963U 26157W   26262.92499950 -.00000046  00000+0  97631-5 0  99902 69963  53.1596 336.4659 0001259  87.6941 272.4206 15.34389046 11280

JSON: /api/v1/satellites/69963 · /tle

For live sub-satellite position, see the globe view (requires WebGL).

§ Visibility from observer

Set your observer location to see the next 7 days of passes ≥ 10°. The values pass through the URL so the page stays shareable.

No JS? Fill the form by hand. The geolocation button needs JavaScript.